This is the latest recevied weather packets stored in our database for station/object OK1TOM-6. If no packets are shown the sender has not sent any weather packets the latest 10 day(s).
| Time | Temp. | Humidity | Pressure | Rain* | Wind** | Luminosity | Snow |
|---|---|---|---|---|---|---|---|
| 1778142961 | 10° C | 93% | 1013.1 hPa | 0 mm | - | - | - |
| 1778142358 | 9.44° C | 91% | 1013 hPa | 0 mm | - | - | - |
| 1778141755 | 10° C | 90% | 1012.9 hPa | 0 mm | - | - | - |
| 1778141151 | 10° C | 88% | 1012.9 hPa | 0 mm | - | - | - |
| 1778140548 | 10° C | 89% | 1012.6 hPa | 0 mm | - | - | - |
| 1778139944 | 10° C | 90% | 1012.5 hPa | 0 mm | - | - | - |
| 1778139341 | 10° C | 90% | 1012.5 hPa | 0 mm | - | - | - |
| 1778138737 | 10° C | 90% | 1012.2 hPa | 0 mm | - | - | - |
| 1778138134 | 9.44° C | 93% | 1012.3 hPa | 0 mm | - | - | - |
| 1778137531 | 9.44° C | 92% | 1012.3 hPa | 0 mm | - | - | - |
| 1778136927 | 9.44° C | 91% | 1012.2 hPa | 0 mm | - | - | - |
| 1778136324 | 9.44° C | 92% | 1012.2 hPa | 0 mm | - | - | - |
| 1778135720 | 8.89° C | 94% | 1012.1 hPa | 0.25 mm | - | - | - |
| 1778135117 | 8.89° C | 94% | 1012.1 hPa | 0.25 mm | - | - | - |
| 1778134574 | 8.89° C | 94% | 1012 hPa | 0.51 mm | - | - | - |
| 1778133970 | 9.44° C | 94% | 1011.8 hPa | 0.51 mm | - | - | - |
| 1778133367 | 8.89° C | 96% | 1011.6 hPa | 0.51 mm | - | - | - |
| 1778132764 | 8.89° C | 95% | 1011.5 hPa | 0.51 mm | - | - | - |
| 1778132160 | 8.89° C | 95% | 1011.4 hPa | 0.25 mm | - | - | - |
| 1778131557 | 8.89° C | 95% | 1011.3 hPa | 0.25 mm | - | - | - |
| 1778130953 | 9.44° C | 95% | 1011.3 hPa | 0 mm | - | - | - |
| 1778130350 | 9.44° C | 95% | 1011.2 hPa | 0 mm | - | - | - |
| 1778129747 | 9.44° C | 95% | 1011.2 hPa | 0 mm | - | - | - |
| 1778129143 | 9.44° C | 95% | 1011.1 hPa | 0.25 mm | - | - | - |
| 1778128540 | 9.44° C | 95% | 1010.9 hPa | 0.25 mm | - | - | - |
* Rain latest hour (hover to see other rain measurements)
** Current wind speed in m/s (hover to see current wind gust speed)